RH
90 95 94 82 94 97 91 97 96 93 82 82 88 88 85 88 68 42 72 59 48 22 31 40 36 37 41 50 47 31 38 30 19 19 30 24 22 27 26 26 21 18 17 20 22
87 94 98 83 96 100 86 98 89 95 81 88 99 93 90 96 65 74 68 56 43 33 43 38 34 33 32 38 36 31 34 33 27 30 30 27 26 26 24 19 19 18 18 18 19
95 96 93 89 95 99 98 99 88 80 69 69 91 94 91 90 78 85 56 53 34 42 38 32 32 27 30 32 29 26 37 26 30 39 36 29 27 24 24 26 18 17 17 17 17
96 86 94 96 90 99 98 98 89 82 61 58 85 85 100 94 94 92 87 88 44 45 38 32 29 28 34 34 30 31 29 32 35 41 37 31 28 27 24 25 20 21 22 23 23
88 84 80 97 95 100 98 80 65 71 68 85 85 78 99 94 99 97 93 75 42 45 38 33 29 26 31 29 28 26 32 34 34 37 35 33 32 31 28 26 24 23 24 24 25
84 72 96 97 100 92 89 67 57 60 74 98 87 100 89 94 97 100 95 68 52 44 39 32 29 29 29 30 30 28 33 31 32 34 34 36 36 30 25 24 26 26 27 29 30
74 84 74 89 100 93 77 76 75 62 83 95 81 87 88 100 98 92 74 62 55 48 46 39 33 32 31 34 37 34 35 38 35 33 37 45 44 39 24 24 25 26 27 26 26
59 86 65 82 88 79 70 89 82 88 92 83 90 80 98 93 90 69 65 62 49 52 45 45 43 42 40 39 34 36 31 40 40 40 45 40 39 23 22 25 24 24 23 22 22
64 81 75 83 80 60 85 87 90 90 92 88 75 80 99 94 86 71 60 60 58 42 42 35 43 45 41 42 42 36 57 45 40 34 36 45 48 31 28 28 27 25 25 26 27
84 80 78 82 80 73 72 68 80 82 82 79 88 78 97 96 81 67 60 57 56 47 42 44 46 46 40 53 69 40 37 32 34 44 42 48 50 37 29 27 27 27 27 34 38
79 84 81 82 79 80 83 83 77 93 96 100 99 98 95 80 72 65 56 52 52 47 52 48 81 91 41 46 40 35 31 33 29 35 41 44 44 39 32 30 33 39 43 47 53
70 78 72 74 70 68 81 91 93 93 96 100 100 96 93 84 66 64 60 48 47 58 41 56 70 48 44 44 44 40 37 35 34 38 43 49 50 40 37 36 44 58 60 66 72
68 65 73 85 90 71 69 84 86 93 97 99 96 96 91 78 66 64 58 50 42 44 45 63 50 43 41 43 41 41 40 46 49 48 45 55 64 43 40 38 49 55 65 74 82
66 64 68 72 71 72 66 71 72 87 93 93 76 74 75 74 58 62 60 55 42 44 44 51 44 42 42 44 42 48 43 45 52 69 91 59 94 56 43 45 47 57 73 84 79
67 67 60 57 67 70 55 59 57 91 92 75 66 66 59 55 57 53 52 46 46 41 49 53 50 51 53 49 46 52 48 54 56 68 74 66 93 73 60 63 64 70 83 88 88
53 57 62 65 57 58 55 52 72 95 96 90 50 50 42 42 44 47 45 43 50 39 38 47 47 48 48 40 43 47 60 59 59 61 89 70 84 85 90 73 76 76 88 85 84
52 54 56 55 56 52 46 65 95 91 59 59 49 34 36 36 37 42 44 47 64 89 65 54 52 45 47 58 52 59 64 84 95 83 90 66 84 82 71 72 78 85 84 76 78
46 49 49 50 47 42 60 73 85 55 56 43 44 41 45 43 47 48 51 59 49 49 60 82 82 58 55 57 56 53 56 79 86 89 90 58 90 83 62 75 81 73 73 75 72
36 50 54 51 49 58 73 87 76 56 44 42 50 41 52 47 50 50 49 52 51 50 62 66 68 47 52 48 56 74 82 75 95 83 83 82 94 80 64 70 67 68 66 64 68
32 54 43 58 61 58 81 68 69 50 47 49 46 43 43 45 48 48 50 49 54 53 47 54 66 51 62 59 61 76 83 91 98 95 92 82 86 88 99 80 70 68 65 62 64
30 50 38 45 60 63 95 74 59 57 59 59 47 45 48 52 53 56 55 53 48 56 52 57 70 66 65 78 78 92 88 92 89 88 98 92 83 98 94 84 77 68 66 62 64
41 77 34 57 82 61 90 59 58 59 62 54 56 46 51 51 51 55 56 54 53 58 63 65 66 82 69 53 52 66 76 80 95 99 99 99 88 64 72 72 66 67 66 57 62
45 38 34 44 91 76 61 60 58 58 54 55 52 49 44 53 62 53 55 56 57 59 67 60 69 92 69 58 51 62 58 61 65 82 92 92 87 62 61 63 67 66 62 55 60
49 84 48 48 49 52 60 58 58 60 55 53 50 50 49 51 49 54 48 56 57 59 67 66 64 76 90 64 59 63 56 57 66 93 75 74 64 54 65 64 61 60 54 53 58
41 60 54 88 53 46 52 50 52 58 60 53 50 51 47 49 44 47 41 50 56 65 62 68 81 77 74 63 60 60 56 52 69 66 78 63 58 48 44 56 52 48 47 51 56
61 53 45 51 54 51 59 55 50 48 51 50 58 41 44 50 42 48 44 41 42 61 56 61 86 70 75 55 53 61 52 50 48 50 58 58 61 42 38 36 43 42 43 49 55
36 38 53 57 53 50 47 40 46 51 48 51 53 51 49 50 55 50 50 48 47 50 60 59 78 79 84 62 64 61 42 45 47 45 47 56 43 40 39 39 39 38 40 46 50
Wind_Speed
26 24 19 25 15 16 14 16 22 19 15 17 26 21 22 15 12 13 4 7 7 13 15 12 11 13 10 4 2 3 2 3 2 3 5 4 2 2 4 6 5 2 4 3 6
28 24 16 24 13 13 16 23 18 13 8 16 26 21 23 18 15 8 7 9 9 15 12 13 15 15 6 6 3 2 1 6 7 8 6 7 5 7 5 6 7 8 8 9 11
27 21 17 22 11 20 26 26 19 14 10 15 26 18 25 20 17 5 7 10 16 15 13 10 14 12 6 10 4 4 1 4 8 9 7 6 4 3 5 6 8 8 8 8 9
25 19 15 21 12 23 25 20 15 12 10 17 19 18 34 26 7 9 16 7 17 12 12 13 13 8 6 6 5 2 4 4 4 4 1 4 8 6 11 12 13 13 14 16 17
26 21 18 21 20 31 24 19 18 15 14 21 17 12 25 14 7 17 16 9 12 10 11 10 13 6 6 8 7 3 6 1 1 2 5 8 10 8 22 20 18 19 18 18 18
26 23 20 25 27 28 24 19 15 15 17 22 22 23 17 11 9 12 19 10 9 9 8 7 3 2 8 7 2 3 3 3 3 3 4 6 7 5 12 4 8 10 13 14 14
25 23 22 27 30 28 24 22 20 20 20 20 21 16 29 11 7 17 15 11 9 9 9 8 9 1 9 4 3 4 2 7 8 3 1 4 7 10 15 10 10 11 13 14 15
27 27 20 29 27 26 25 25 28 23 20 20 21 18 10 21 21 22 14 12 10 13 12 12 12 10 6 8 3 3 1 2 5 4 2 2 7 3 5 3 11 14 17 22 23
25 25 23 22 24 24 30 30 26 22 24 17 18 19 7 17 17 13 12 13 13 11 11 10 8 5 5 2 2 3 2 4 3 5 1 3 7 10 15 22 22 22 20 20 20
24 24 18 22 27 30 24 21 22 20 14 15 12 15 8 7 15 15 9 6 8 11 10 6 4 3 2 0 1 2 3 3 4 5 4 7 13 15 24 19 20 20 18 13 18
22 22 20 22 19 14 12 9 9 17 39 21 19 28 18 15 14 9 7 8 4 2 4 2 2 2 7 8 5 6 5 6 6 8 4 8 12 13 18 21 15 8 15 16 19
15 12 7 6 4 5 4 11 12 16 16 30 27 26 15 12 9 11 6 1 0 5 4 1 5 6 6 4 4 4 4 5 2 2 4 10 12 19 12 3 8 15 16 19 23
15 20 25 23 21 17 26 24 14 6 9 13 18 14 9 11 8 12 11 7 6 5 2 4 7 4 2 0 3 5 4 5 4 8 9 7 7 4 4 5 7 10 14 18 21
19 20 15 11 9 9 8 6 6 4 4 9 6 5 8 6 4 7 8 4 4 5 6 6 4 1 1 3 2 4 4 4 7 6 3 8 5 5 3 2 3 16 19 18 24
4 4 10 9 6 4 5 7 2 2 5 7 4 4 6 6 0 7 9 4 7 5 3 3 4 2 3 3 3 4 4 6 8 6 7 3 1 6 5 3 7 13 19 18 25
6 11 12 6 11 8 7 5 3 2 6 4 2 2 3 9 4 2 2 4 2 1 1 5 2 2 4 2 3 8 6 10 1 3 4 7 5 4 1 3 5 14 17 20 25
14 11 5 9 4 5 3 3 3 6 2 2 3 2 6 3 4 4 2 3 1 2 2 4 4 4 1 5 3 4 5 2 2 2 4 4 2 8 4 4 3 8 15 18 24
14 14 13 7 4 6 4 1 10 1 3 0 3 4 3 2 2 3 4 4 3 4 2 2 2 6 8 3 3 2 3 1 3 3 4 3 5 5 4 6 4 6 15 15 17
10 14 18 11 6 5 4 6 2 3 2 3 4 2 3 2 3 3 3 2 3 4 2 3 2 3 4 1 2 0 0 3 1 4 3 4 5 6 4 3 2 6 14 15 18
5 4 13 10 8 7 5 6 3 3 1 2 2 3 2 3 3 3 1 3 1 2 6 2 2 3 5 1 1 4 1 2 2 3 4 4 4 4 4 4 3 5 7 12 15
5 1 11 7 12 8 3 4 4 4 3 3 2 1 3 2 5 4 5 4 1 3 4 2 0 2 2 6 8 3 2 2 2 2 2 4 5 5 7 6 6 6 7 10 11
5 3 9 6 5 4 2 2 1 6 4 3 3 2 3 0 2 2 0 1 2 1 1 3 2 4 6 6 4 6 6 5 2 1 2 2 6 6 6 7 7 7 11 6 7
2 2 7 3 2 3 2 1 3 4 4 4 4 3 1 2 3 2 3 6 7 4 1 1 1 3 2 2 3 4 5 6 4 3 6 2 5 6 7 7 12 13 13 8 8
2 1 4 6 5 5 3 2 2 2 3 3 2 2 3 4 3 1 3 4 4 5 2 1 2 5 4 2 4 4 6 9 9 3 3 11 14 8 8 9 12 19 15 9 9
3 0 2 1 2 3 1 3 4 3 3 3 3 6 3 2 5 4 2 5 8 6 3 2 4 4 8 14 14 13 13 12 14 15 7 5 10 9 4 10 18 18 14 11 11
2 1 1 3 1 2 3 5 5 5 2 4 4 1 3 3 5 4 3 3 2 7 3 4 4 6 8 14 12 11 14 18 19 18 18 20 24 18 29 25 17 17 14 14 15
1 1 1 4 3 2 1 2 1 3 6 2 6 5 6 5 7 8 8 12 9 3 7 6 2 5 5 9 10 9 12 19 13 12 19 16 20 11 7 5 13 14 16 18 18
Wind_Direction
345 335 332 339 304 298 263 243 159 182 193 200 192 191 195 198 167 151 128 183 186 166 140 142 132 134 144 130 110 50 314 243 354 64 87 108 254 80 317 298 313 304 315 360 324
348 343 343 343 339 0 194 154 157 147 155 183 182 185 192 192 161 135 189 184 158 143 128 144 148 143 131 133 134 222 295 28 19 36 52 76 344 25 338 278 250 247 273 287 298
355 354 5 356 5 46 129 129 128 121 132 160 185 169 188 166 144 94 148 160 146 133 143 154 151 150 115 152 152 161 335 12 58 54 30 358 307 280 307 279 256 293 307 277 265
6 13 21 20 23 88 123 106 99 113 111 148 160 185 159 148 134 154 128 154 148 129 136 145 155 153 131 162 146 164 79 30 81 90 358 292 330 298 251 248 283 292 288 283 278
27 36 32 35 62 81 100 95 81 97 106 135 143 164 133 98 77 135 130 141 140 117 136 148 168 165 152 124 151 251 122 127 205 237 253 270 266 260 268 265 266 273 276 277 278
36 41 40 57 70 87 85 80 74 98 115 134 116 135 106 73 129 123 126 115 126 122 136 142 128 88 90 122 237 54 95 248 214 257 270 276 274 289 266 245 234 265 270 272 273
37 38 51 69 80 86 75 72 76 98 111 131 155 90 63 57 112 107 109 124 115 123 120 113 130 17 123 115 118 118 248 196 220 203 244 323 261 215 258 264 274 270 273 275 275
38 31 71 75 74 72 76 81 84 92 101 115 122 141 55 81 92 80 86 96 125 130 126 111 114 101 73 108 140 213 341 259 83 154 131 353 267 327 159 290 292 289 290 292 288
45 52 76 70 73 80 85 79 79 90 86 95 113 135 66 97 72 65 91 97 92 99 99 109 95 89 112 203 140 201 227 189 179 172 326 189 283 304 316 307 292 288 289 293 298
60 54 81 83 91 88 74 80 84 88 72 85 71 81 85 73 70 76 88 88 95 93 77 62 69 137 178 170 152 310 217 153 226 173 195 266 262 277 281 278 280 283 291 326 325
75 83 82 100 103 85 54 39 43 49 55 61 73 90 103 73 59 74 80 85 100 156 110 61 90 56 80 30 9 332 356 316 317 61 14 259 273 279 282 282 290 13 354 339 337
76 83 67 43 4 35 43 90 83 115 59 55 72 78 78 58 56 29 21 95 312 81 115 94 78 55 46 21 4 347 323 286 36 104 262 271 279 273 272 84 59 31 360 349 331
79 87 82 75 71 87 92 98 105 67 79 40 49 59 45 49 40 14 35 9 42 70 152 84 90 114 321 37 293 210 286 3 319 318 266 343 288 159 153 208 95 29 0 345 337
108 102 75 75 52 38 41 54 62 94 81 8 28 27 11 327 53 24 30 31 30 51 45 85 127 3 207 280 331 286 34 318 314 354 288 38 284 305 200 175 101 19 359 339 332
123 98 28 43 28 8 358 355 30 66 71 341 0 9 22 56 271 15 22 16 45 84 287 79 160 198 267 35 340 24 354 302 285 286 319 296 253 263 72 324 337 4 338 336 336
305 285 296 270 340 343 342 358 8 33 61 335 22 314 77 54 47 10 40 57 93 311 12 99 41 311 2 341 284 319 279 251 166 273 269 231 167 263 228 285 335 342 335 334 339
20 4 316 289 300 332 358 32 55 52 234 53 59 89 79 58 82 25 8 83 50 65 159 163 180 138 233 240 185 241 287 300 327 246 233 95 247 255 201 46 343 309 320 344 344
28 36 38 41 66 104 53 72 61 30 118 94 184 178 74 323 107 169 226 148 135 296 273 189 257 191 159 279 331 320 317 278 275 329 291 219 236 262 114 125 211 311 309 318 339
355 32 28 37 71 57 44 57 97 115 216 152 216 197 127 118 296 262 47 52 48 8 342 321 121 104 195 4 320 293 272 29 4 220 281 245 284 276 120 178 191 322 319 341 342
1 27 27 33 47 50 66 91 87 70 132 268 5 304 127 100 230 241 236 91 116 39 336 54 250 155 108 178 39 12 41 203 120 322 289 285 280 244 270 221 265 276 313 330 338
25 344 4 47 47 48 60 89 131 160 219 301 10 148 50 70 353 20 33 109 48 76 337 323 341 135 161 203 175 156 181 192 323 261 312 314 270 209 211 195 233 253 292 316 333
49 10 5 44 60 58 22 58 123 155 192 227 279 349 358 315 167 222 335 74 115 160 296 65 284 266 229 97 111 178 185 166 175 87 250 283 270 170 188 208 210 226 283 299 314
37 360 357 1 87 95 180 96 307 188 196 195 215 268 200 221 251 215 163 134 174 189 349 120 243 300 146 115 174 228 222 225 234 68 220 221 263 186 199 197 215 239 268 287 292
12 9 5 41 20 120 155 166 159 281 294 269 312 228 230 223 179 341 212 140 174 197 146 256 261 234 227 298 340 244 221 206 194 204 252 244 276 255 214 219 220 239 247 256 267
356 121 157 332 95 344 328 155 178 204 230 263 244 256 278 264 192 205 136 167 181 176 196 225 252 249 265 272 273 263 251 239 213 218 222 267 277 281 287 217 220 233 239 238 248
333 278 253 123 158 280 150 213 219 148 239 208 247 299 265 282 4 332 32 232 278 154 225 192 274 301 277 261 251 254 248 239 237 236 237 252 271 277 271 264 210 214 218 232 246
328 219 256 180 165 205 271 322 268 66 197 257 345 342 279 313 348 311 297 285 277 256 195 184 216 350 272 338 321 287 251 226 234 227 227 241 248 279 292 228 211 218 230 234 244